Wrangell, AK

10:16 PM AKST on January 17, 2017 (GMT -0900)
Wrangell

Weather History for PAWG - January, 2013

Change the Weather History Date:

Monday, January 7, 2013

  Actual Average Record
Temperature  
Mean Temperature 36 °F -  
Max Temperature 39 °F 31 °F 55 °F (2001)
Min Temperature 33 °F 22 °F 0 °F (1966)
Degree Days  
Heating Degree Days 29    
Moisture  
Dew Point 33 °F    
Average Humidity 85    
Maximum Humidity 93    
Minimum Humidity 75    
Precipitation  
Precipitation 0.24 in - - ()
Sea Level Pressure  
Sea Level Pressure 29.59 in    
Wind  
Wind Speed 6 mph (ESE)    
Max Wind Speed 13 mph    
Max Gust Speed 16 mph    
Visibility 9 miles    
Events      
Averages and records for this station are not official NWS values.
T = Trace of Precipitation, MM = Missing Value Source: NWS Daily Summary

Daily Weather History Graph

Daily Weather History Graph

Search for Another Location

Airport or City:

Trip Planner

Search our weather history database for the weather conditions in past years. The results will help you decide how hot, cold, wet, or windy it might be!

Date:

Astronomy

Jan. 07, 2013 Rise Set
Actual Time 8:20 AM AKST 3:31 PM AKST
Civil Twilight 7:33 AM AKST 4:18 PM AKST
Nautical Twilight 6:44 AM AKST 5:07 PM AKST
Astronomical Twilight 5:59 AM AKST 5:53 PM AKST
Moon 3:39 AM AKST (1/7) 11:58 AM AKST (1/7)
Length of Visible Light 8h 44m
Length of Day
7h 11m
Waning Crescent, 21% of the Moon is Illuminated
Jan 7
Waning Crescent
Jan 11
New
Jan 18
First Quarter
Jan 26
Full
Feb 3
Last Quarter

Hourly Weather History & Observations

Time (AKST) Temp. Windchill Dew Point Humidity Pressure Visibility Wind Dir Wind Speed Gust Speed Precip Events Conditions
12:16 AM 35.6 °F 29.9 °F 30.2 °F 81% 29.49 in 10.0 mi West 6.9 mph - N/A   Overcast
12:36 AM 35.6 °F - 30.2 °F 81% 29.49 in 10.0 mi Calm Calm - 0.01 in   Overcast
12:56 AM 37.4 °F 32.1 °F 32.0 °F 81% 29.48 in 10.0 mi East 6.9 mph - 0.01 in   Overcast
1:16 AM 37.4 °F 31.4 °F 33.8 °F 87% 29.47 in 9.0 mi East 8.1 mph - N/A   Overcast
1:36 AM 37.4 °F 29.8 °F 32.0 °F 81% 29.46 in 10.0 mi East 11.5 mph - N/A   Overcast
1:56 AM 37.4 °F 29.8 °F 33.8 °F 87% 29.45 in 10.0 mi East 11.5 mph - N/A   Overcast
2:16 AM 37.4 °F 31.4 °F 33.8 °F 87% 29.45 in 10.0 mi East 8.1 mph - N/A   Overcast
2:36 AM 37.4 °F 30.3 °F 33.8 °F 87% 29.44 in 9.0 mi East 10.4 mph - N/A   Overcast
2:56 AM 37.4 °F 30.3 °F 33.8 °F 87% 29.44 in 10.0 mi East 10.4 mph - N/A   Overcast
3:16 AM 37.4 °F 29.8 °F 33.8 °F 87% 29.43 in 9.0 mi East 11.5 mph - N/A   Overcast
3:36 AM 37.4 °F 30.8 °F 33.8 °F 87% 29.43 in 9.0 mi East 9.2 mph - N/A   Overcast
3:56 AM 37.4 °F 30.3 °F 33.8 °F 87% 29.43 in 10.0 mi East 10.4 mph - 0.01 in   Overcast
4:16 AM 37.4 °F 30.8 °F 33.8 °F 87% 29.43 in 10.0 mi East 9.2 mph 16.1 mph N/A   Overcast
4:36 AM 37.4 °F 30.8 °F 33.8 °F 87% 29.43 in 10.0 mi ESE 9.2 mph - N/A   Overcast
4:56 AM 37.4 °F 29.8 °F 33.8 °F 87% 29.43 in 10.0 mi East 11.5 mph 16.1 mph N/A   Overcast
5:16 AM 37.4 °F 29.3 °F 33.8 °F 87% 29.43 in 10.0 mi East 12.7 mph - N/A   Overcast
5:36 AM 37.4 °F 30.8 °F 33.8 °F 87% 29.43 in 10.0 mi East 9.2 mph - N/A   Overcast
5:56 AM 37.4 °F 31.4 °F 33.8 °F 87% 29.43 in 10.0 mi East 8.1 mph - N/A   Overcast
6:16 AM 37.4 °F 31.4 °F 33.8 °F 87% 29.43 in 10.0 mi ESE 8.1 mph - N/A   Overcast
6:36 AM 37.4 °F 32.8 °F 33.8 °F 87% 29.43 in 10.0 mi ENE 5.8 mph - N/A   Overcast
6:56 AM 37.4 °F 32.1 °F 33.8 °F 87% 29.44 in 10.0 mi East 6.9 mph - N/A   Overcast
7:16 AM 37.4 °F 32.1 °F 33.8 °F 87% 29.45 in 10.0 mi East 6.9 mph - N/A   Overcast
7:36 AM 37.4 °F 32.1 °F 33.8 °F 87% 29.46 in 10.0 mi East 6.9 mph - N/A   Overcast
7:56 AM 37.4 °F 34.9 °F 33.8 °F 87% 29.46 in 10.0 mi East 3.5 mph - N/A   Overcast
8:16 AM 37.4 °F - 33.8 °F 87% 29.48 in 10.0 mi Calm Calm - N/A   Overcast
8:36 AM 37.4 °F 33.8 °F 33.8 °F 87% 29.49 in 10.0 mi WNW 4.6 mph - N/A   Overcast
8:56 AM 37.4 °F 32.8 °F 33.8 °F 87% 29.51 in 10.0 mi NW 5.8 mph - N/A   Overcast
9:16 AM 37.4 °F - 33.8 °F 87% 29.51 in 10.0 mi Calm Calm - N/A   Overcast
9:36 AM 37.4 °F 34.9 °F 33.8 °F 87% 29.52 in 10.0 mi SE 3.5 mph - N/A   Overcast
9:56 AM 37.4 °F 31.4 °F 35.6 °F 93% 29.53 in 10.0 mi East 8.1 mph - N/A   Overcast
10:16 AM 37.4 °F 32.1 °F 35.6 °F 93% 29.53 in 10.0 mi East 6.9 mph - N/A   Overcast
10:36 AM 37.4 °F 32.8 °F 35.6 °F 93% 29.54 in 10.0 mi East 5.8 mph - N/A   Overcast
10:56 AM 39.2 °F 35.9 °F 35.6 °F 87% 29.55 in 10.0 mi East 4.6 mph - N/A   Overcast
11:16 AM 39.2 °F 35.9 °F 35.6 °F 87% 29.56 in 10.0 mi ENE 4.6 mph - N/A   Overcast
11:36 AM 37.4 °F 33.8 °F 32.0 °F 81% 29.57 in 10.0 mi WNW 4.6 mph - N/A   Overcast
11:56 AM 37.4 °F 33.8 °F 33.8 °F 87% 29.57 in 10.0 mi ESE 4.6 mph - N/A   Overcast
12:16 PM 35.6 °F 31.7 °F 32.0 °F 87% 29.59 in 10.0 mi West 4.6 mph - N/A   Overcast
12:36 PM 35.6 °F - 33.8 °F 93% 29.59 in 10.0 mi Calm Calm - N/A   Overcast
12:56 PM 37.4 °F 33.8 °F 35.6 °F 93% 29.59 in 10.0 mi SE 4.6 mph - N/A   Overcast
1:16 PM 37.4 °F 32.1 °F 35.6 °F 93% 29.59 in 10.0 mi ESE 6.9 mph - N/A   Overcast
1:36 PM 39.2 °F 34.2 °F 35.6 °F 87% 29.60 in 10.0 mi East 6.9 mph - N/A   Overcast
1:56 PM 39.2 °F 33.6 °F 35.6 °F 87% 29.61 in 10.0 mi East 8.1 mph - N/A   Overcast
2:16 PM 39.2 °F 35.9 °F 33.8 °F 81% 29.62 in 10.0 mi SE 4.6 mph - N/A   Overcast
2:36 PM 37.4 °F - 33.8 °F 87% 29.63 in 10.0 mi Calm Calm - N/A   Overcast
2:56 PM 37.4 °F - 33.8 °F 87% 29.63 in 10.0 mi Calm Calm - N/A   Overcast
3:16 PM 39.2 °F - 33.8 °F 81% 29.64 in 10.0 mi Calm Calm - N/A   Overcast
3:36 PM 39.2 °F 35.0 °F 33.8 °F 81% 29.65 in 10.0 mi SW 5.8 mph - N/A   Overcast
3:56 PM 37.4 °F 29.3 °F 30.2 °F 75% 29.67 in 3.0 mi SW 12.7 mph - 0.04 in   Overcast
4:16 PM 35.6 °F 32.8 °F 30.2 °F 81% 29.68 in 3.0 mi SW 3.5 mph - 0.01 in   Overcast
4:36 PM 37.4 °F - 30.2 °F 75% 29.68 in 3.0 mi Calm Calm - 0.01 in   Overcast
4:56 PM 37.4 °F 32.1 °F 33.8 °F 87% 29.69 in 7.0 mi East 6.9 mph - 0.02 in   Overcast
5:16 PM 37.4 °F - 32.0 °F 81% 29.69 in 7.0 mi Calm Calm - N/A   Overcast
5:36 PM 37.4 °F 33.8 °F 33.8 °F 87% 29.69 in 7.0 mi East 4.6 mph - N/A   Overcast
5:56 PM 37.4 °F 34.9 °F 32.0 °F 81% 29.71 in 7.0 mi NNE 3.5 mph - 0.02 in   Overcast
6:16 PM 37.4 °F 33.8 °F 30.2 °F 75% 29.71 in 7.0 mi ENE 4.6 mph - N/A   Overcast
6:36 PM 37.4 °F 33.8 °F 32.0 °F 81% 29.72 in 7.0 mi SSE 4.6 mph - N/A   Overcast
6:56 PM 37.4 °F 31.4 °F 32.0 °F 81% 29.73 in 7.0 mi SSE 8.1 mph - N/A   Overcast
7:16 PM 37.4 °F 34.9 °F 32.0 °F 81% 29.73 in 7.0 mi SSE 3.5 mph - N/A   Overcast
7:36 PM 35.6 °F - 32.0 °F 87% 29.74 in 7.0 mi Calm Calm - N/A   Overcast
7:56 PM 37.4 °F 29.8 °F 30.2 °F 75% 29.73 in 7.0 mi East 11.5 mph 16.1 mph N/A   Overcast
8:16 PM 37.4 °F 32.1 °F 33.8 °F 87% 29.74 in 7.0 mi SSE 6.9 mph - N/A   Overcast
8:36 PM 35.6 °F - 32.0 °F 87% 29.75 in 7.0 mi Calm Calm - N/A   Overcast
8:56 PM 35.6 °F 31.7 °F 30.2 °F 81% 29.75 in 7.0 mi SW 4.6 mph - 0.05 in   Overcast
9:16 PM 35.6 °F 32.8 °F 30.2 °F 81% 29.76 in 7.0 mi ESE 3.5 mph - 0.03 in   Overcast
9:36 PM 33.8 °F 30.8 °F 30.2 °F 87% 29.77 in 7.0 mi NE 3.5 mph - 0.06 in   Overcast
9:56 PM 33.8 °F 30.8 °F 30.2 °F 87% 29.77 in 2.0 mi SE 3.5 mph - 0.07 in   Overcast
10:16 PM 33.8 °F 30.8 °F 30.2 °F 87% 29.78 in 2.0 mi ESE 3.5 mph - N/A   Overcast
10:36 PM 35.6 °F 31.7 °F 30.2 °F 81% 29.78 in 2.0 mi ESE 4.6 mph - 0.01 in   Overcast
10:56 PM 35.6 °F - 30.2 °F 81% 29.78 in 2.0 mi Calm Calm - 0.02 in   Overcast
11:16 PM 35.6 °F 32.8 °F 30.2 °F 81% 29.79 in 10.0 mi East 3.5 mph - N/A   Overcast
11:36 PM 35.6 °F 31.7 °F 30.2 °F 81% 29.79 in 10.0 mi SSE 4.6 mph - N/A   Overcast
11:56 PM 35.6 °F 31.7 °F 33.8 °F 93% 29.80 in 10.0 mi SSE 4.6 mph - N/A   Overcast